START_TIME,STEP,MOV.,M6,t_acc.,M7,t_acc.,M19,t_acc.,H36,t_acc.
1980-11-14 12:00:15.670 ,7,0,0.,12.0,0.,12.0,0.,12.0,0.,12.0
1980-11-14 12:00:27.670 ,7,0,0.,12.0,0.,12.0,0.,12.0,0.,12.0
1980-11-14 12:00:39.670 ,7,1,0.,12.0,0.,12.0,0.,12.0,0.,12.0
1980-11-14 12:00:51.670 ,7,1,0.,12.0,0.,12.0,0.,12.0,0.,12.0
1980-11-14 12:01:03.670 ,7,0,0.,12.0,0.,12.0,0.,12.0,0.,12.0
1980-11-14 12:01:15.670 ,7,0,0.,12.0,0.,12.0,0.,12.0,0.,12.0
1980-11-14 12:01:27.670 ,6,1,0.,12.0,0.,12.0,0.,12.0,0.,12.0
1980-11-14 12:01:39.670 ,6,1,0.,12.0,0.,12.0,0.,12.0,0.,12.0
1980-11-14 12:01:51.670 ,6,0,0.,12.0,0.,12.0,0.,12.0,0.,12.0
1980-11-14 12:02:03.670 ,6,0,0.,12.0,0.,12.0,0.,12.0,0.,12.0
1980-11-14 12:02:15.670 ,5,1,0.,12.0,0.,12.0,0.,12.0,0.,12.0
1980-11-14 12:02:27.670 ,5,1,0.,12.0,0.,12.0,0.,12.0,0.,12.0
1980-11-14 12:02:39.670 ,5,0,0.,12.0,0.,12.0,0.,12.0,0.,12.0
1980-11-14 12:02:51.670 ,5,0,0.,12.0,0.,12.0,0.,12.0,0.,12.0
1980-11-14 12:03:03.670 ,4,1,0.,12.0,0.,12.0,0.,12.0,0.,12.0
1980-11-14 12:03:15.670 ,4,1,0.,12.0,0.,12.0,0.,12.0,0.,12.0
1980-11-14 12:03:27.670 ,4,0,0.,12.0,0.,12.0,0.,12.0,0.,12.0
1980-11-14 12:03:39.670 ,4,0,0.,12.0,0.,12.0,0.,12.0,0.,12.0
1980-11-14 12:03:51.670 ,3,1,0.,12.0,0.,12.0,0.,12.0,0.,12.0
1980-11-14 12:04:03.670 ,3,1,0.,12.0,0.,12.0,0.,12.0,0.,12.0
1980-11-14 12:04:15.670 ,3,0,0.,12.0,0.,12.0,0.,12.0,0.,12.0
1980-11-14 12:04:27.670 ,3,0,0.,12.0,0.,12.0,0.,12.0,0.,12.0
1980-11-14 12:04:39.670 ,2,1,0.,12.0,0.,12.0,0.,12.0,0.,12.0
1980-11-14 12:04:51.670 ,2,1,0.,12.0,0.,12.0,0.,12.0,0.,12.0
1980-11-14 12:05:03.670 ,2,0,0.,12.0,0.,12.0,0.,12.0,0.,12.0
1980-11-14 12:05:15.670 ,2,0,0.,12.0,0.,12.0,0.,12.0,0.,12.0
1980-11-14 12:05:27.670 ,1,1,0.,12.0,0.,12.0,0.,12.0,0.,12.0
1980-11-14 12:05:39.670 ,1,1,0.,12.0,0.,12.0,0.,12.0,0.,12.0
1980-11-14 12:05:51.670 ,1,0,0.,12.0,0.,12.0,0.,12.0,0.,12.0
1980-11-14 12:06:03.670 ,1,0,0.,12.0,0.,12.0,0.,12.0,0.,12.0
1980-11-14 12:06:15.670 ,0,1,0.,12.0,0.,12.0,0.,12.0,0.,12.0
1980-11-14 12:06:27.670 ,0,1,0.,12.0,0.,12.0,0.,12.0,0.,12.0
1980-11-14 12:06:39.670 ,0,0,0.,12.0,0.,12.0,0.,12.0,0.,12.0
1980-11-14 12:06:51.670 ,0,0,0.,12.0,0.,12.0,0.,12.0,0.,12.0
1980-11-14 12:07:03.670 ,0,1,0.,12.0,0.,12.0,0.,12.0,0.,12.0
1980-11-14 12:07:15.670 ,0,1,0.,12.0,0.,12.0,0.,12.0,0.,12.0
1980-11-14 12:07:27.670 ,0,0,0.,12.0,0.,12.0,0.,12.0,0.,12.0
1980-11-14 12:07:39.670 ,0,0,0.,12.0,0.,12.0,0.,12.0,0.,12.0
1980-11-14 12:07:51.670 ,1,1,0.,12.0,0.,12.0,0.,12.0,0.,12.0
1980-11-14 12:08:03.670 ,1,1,0.,12.0,0.,12.0,0.,12.0,0.,12.0
1980-11-14 12:08:15.670 ,1,0,0.,12.0,0.,12.0,0.,12.0,0.,12.0
1980-11-14 12:08:27.670 ,1,0,0.,12.0,0.,12.0,0.,12.0,0.,12.0
1980-11-14 12:08:39.670 ,2,1,0.,12.0,0.,12.0,0.,12.0,0.,12.0
1980-11-14 12:08:51.670 ,2,1,0.,12.0,0.,12.0,0.,12.0,0.,12.0
1980-11-14 12:09:03.670 ,2,0,0.,12.0,0.,12.0,0.,12.0,0.,12.0
1980-11-14 12:09:15.670 ,2,0,0.,12.0,0.,12.0,0.,12.0,0.,12.0
1980-11-14 12:09:27.670 ,3,1,0.,12.0,0.,12.0,0.,12.0,0.,12.0
1980-11-14 12:09:39.670 ,3,1,0.,12.0,0.,12.0,0.,12.0,0.,12.0
1980-11-14 12:09:51.670 ,3,0,0.,12.0,0.,12.0,0.,12.0,0.,12.0
1980-11-14 12:10:03.670 ,3,0,0.,12.0,0.,12.0,0.,12.0,0.,12.0
1980-11-14 12:10:15.670 ,4,1,0.,12.0,0.,12.0,0.,12.0,0.,12.0
1980-11-14 12:10:27.670 ,4,1,0.,12.0,0.,12.0,0.,12.0,0.,12.0
1980-11-14 12:10:39.670 ,4,0,0.,12.0,0.,12.0,0.,12.0,0.,12.0
1980-11-14 12:10:51.670 ,4,0,0.,12.0,0.,12.0,0.,12.0,0.,12.0
1980-11-14 12:11:03.670 ,5,1,0.,12.0,0.,12.0,0.,12.0,0.,12.0
1980-11-14 12:11:15.670 ,5,1,0.,12.0,0.,12.0,0.,12.0,0.,12.0
1980-11-14 12:11:27.670 ,5,0,0.,12.0,0.,12.0,0.,12.0,0.,12.0
1980-11-14 12:11:39.670 ,5,0,0.,12.0,0.,12.0,0.,12.0,0.,12.0
1980-11-14 12:11:51.670 ,6,1,0.,12.0,0.,12.0,0.,12.0,0.,12.0
1980-11-14 12:12:03.670 ,6,1,0.,12.0,0.,12.0,0.,12.0,0.,12.0
1980-11-14 12:12:15.670 ,6,0,0.,12.0,0.,12.0,0.,12.0,0.,12.0
1980-11-14 12:12:27.670 ,6,0,0.,12.0,0.,12.0,0.,12.0,0.,12.0
1980-11-14 12:12:39.670 ,7,1,0.,12.0,0.,12.0,0.,12.0,0.,12.0
1980-11-14 12:12:51.670 ,7,1,0.,12.0,0.,12.0,0.,12.0,0.,12.0
1980-11-14 12:13:03.670 ,7,0,0.,12.0,0.,12.0,0.,12.0,0.,12.0
1980-11-14 12:13:15.670 ,7,0,0.,12.0,0.,12.0,0.,12.0,0.,12.0
1980-11-14 12:13:27.670 ,7,1,0.,12.0,0.,12.0,0.,12.0,0.,12.0
1980-11-14 12:13:39.670 ,7,1,0.,12.0,0.,12.0,0.,12.0,0.,12.0
1980-11-14 12:13:51.670 ,7,0,0.,12.0,0.,12.0,0.,12.0,0.,12.0
1980-11-14 12:14:03.670 ,7,0,0.,12.0,0.,12.0,0.,12.0,0.,12.0
1980-11-14 12:14:15.670 ,6,1,0.,12.0,0.,12.0,0.,12.0,0.,12.0
1980-11-14 12:14:27.670 ,6,1,0.,12.0,0.,12.0,0.,12.0,0.,12.0
1980-11-14 12:14:39.670 ,6,0,0.,12.0,0.,12.0,0.,12.0,0.,12.0
1980-11-14 12:14:51.670 ,6,0,0.,12.0,0.,12.0,0.,12.0,0.,12.0
1980-11-14 12:15:03.670 ,5,1,0.,12.0,0.,12.0,0.,12.0,0.,12.0
1980-11-14 12:15:15.670 ,5,1,0.,12.0,0.,12.0,0.,12.0,0.,12.0
1980-11-14 12:15:27.670 ,5,0,0.,12.0,0.,12.0,0.,12.0,0.,12.0
1980-11-14 12:15:39.670 ,5,0,0.,12.0,0.,12.0,0.,12.0,0.,12.0
1980-11-14 12:15:51.670 ,4,1,0.,12.0,0.,12.0,0.,12.0,0.,12.0
1980-11-14 12:16:03.670 ,4,1,0.,12.0,0.,12.0,0.,12.0,0.,12.0
1980-11-14 12:16:15.670 ,4,0,0.,12.0,0.,12.0,0.,12.0,0.,12.0
1980-11-14 12:16:27.670 ,4,0,0.,12.0,0.,12.0,0.,12.0,0.,12.0
1980-11-14 12:16:39.670 ,3,1,0.,12.0,0.,12.0,0.,12.0,0.,12.0
1980-11-14 12:16:51.670 ,3,1,0.,12.0,0.,12.0,0.,12.0,0.,12.0
1980-11-14 12:17:03.670 ,3,0,0.,12.0,0.,12.0,0.,12.0,0.,12.0
1980-11-14 12:17:15.670 ,3,0,0.,12.0,0.,12.0,0.,12.0,0.,12.0
1980-11-14 12:17:27.670 ,2,1,0.,12.0,0.,12.0,0.,12.0,0.,12.0
1980-11-14 12:17:39.670 ,2,1,0.,12.0,0.,12.0,0.,12.0,0.,12.0
1980-11-14 12:17:51.670 ,2,0,0.,12.0,0.,12.0,0.,12.0,0.,12.0
1980-11-14 12:18:03.670 ,2,0,0.,12.0,0.,12.0,0.,12.0,0.,12.0
1980-11-14 12:18:15.670 ,1,1,0.,12.0,0.,12.0,0.,12.0,0.,12.0
1980-11-14 12:18:27.670 ,1,1,0.,12.0,0.,12.0,0.,12.0,0.,12.0
1980-11-14 12:18:39.670 ,1,0,0.,12.0,0.,12.0,0.,12.0,0.,12.0
1980-11-14 12:18:51.670 ,1,0,0.,12.0,0.,12.0,0.,12.0,0.,12.0
1980-11-14 12:19:03.670 ,0,1,0.,12.0,0.,12.0,0.,12.0,0.,12.0
1980-11-14 12:19:15.670 ,0,1,0.,12.0,0.,12.0,0.,12.0,0.,12.0
1980-11-14 12:19:27.670 ,0,0,0.,12.0,0.,12.0,0.,12.0,0.,12.0
1980-11-14 12:19:39.670 ,0,0,0.,12.0,0.,12.0,0.,12.0,0.,12.0
1980-11-14 12:19:51.670 ,0,1,0.,12.0,0.,12.0,0.,12.0,0.,12.0
1980-11-14 12:20:03.670 ,0,1,0.,12.0,0.,12.0,0.,12.0,0.,12.0
1980-11-14 12:20:15.670 ,0,0,0.,12.0,0.,12.0,0.,12.0,0.,12.0
1980-11-14 12:20:27.670 ,0,0,0.,12.0,0.,12.0,0.,12.0,0.,12.0
1980-11-14 12:20:39.670 ,1,1,0.,12.0,0.,12.0,0.,12.0,0.,12.0
1980-11-14 12:20:51.670 ,1,1,0.,12.0,0.,12.0,0.,12.0,0.,12.0
1980-11-14 12:21:03.670 ,1,0,0.,12.0,0.,12.0,0.,12.0,0.,12.0
1980-11-14 12:21:15.670 ,1,0,0.,12.0,0.,12.0,0.,12.0,0.,12.0
1980-11-14 12:21:27.670 ,2,1,0.,12.0,0.,12.0,0.,12.0,0.,12.0
1980-11-14 12:21:39.670 ,2,1,0.,12.0,0.,12.0,0.,12.0,0.,12.0
1980-11-14 12:21:51.670 ,2,0,0.,12.0,0.,12.0,0.,12.0,0.,12.0
1980-11-14 12:22:03.670 ,2,0,0.,12.0,0.,12.0,0.,12.0,0.,12.0
1980-11-14 12:22:15.670 ,3,1,0.,12.0,0.,12.0,0.,12.0,0.,12.0
1980-11-14 12:22:27.670 ,3,1,0.,12.0,0.,12.0,0.,12.0,0.,12.0
1980-11-14 12:22:39.670 ,3,0,0.,12.0,0.,12.0,0.,12.0,0.,12.0
1980-11-14 12:22:51.670 ,3,0,0.,12.0,0.,12.0,0.,12.0,0.,12.0
1980-11-14 12:23:03.670 ,4,1,0.,12.0,0.,12.0,0.,12.0,0.,12.0
1980-11-14 12:23:15.670 ,4,1,0.,12.0,0.,12.0,0.,12.0,0.,12.0
1980-11-14 12:23:27.670 ,4,0,0.,12.0,0.,12.0,0.,12.0,0.,12.0
1980-11-14 12:23:39.670 ,4,0,0.,12.0,0.,12.0,0.,12.0,0.,12.0
1980-11-14 13:35:51.670 ,0,0,0.,12.0,0.,12.0,0.,12.0,0.,12.0
1980-11-14 13:36:03.670 ,0,0,0.,12.0,0.,12.0,0.,12.0,0.,12.0
1980-11-14 13:36:15.670 ,0,0,0.,12.0,0.,12.0,0.,12.0,0.,12.0
1980-11-14 13:36:27.670 ,0,0,0.,12.0,0.,12.0,0.,12.0,0.,12.0
1980-11-14 13:36:39.670 ,0,1,0.,12.0,0.,12.0,0.,12.0,0.,12.0
1980-11-14 13:36:51.670 ,0,1,0.,12.0,0.,12.0,0.,12.0,0.,12.0
1980-11-14 13:37:03.670 ,0,0,0.,12.0,0.,12.0,0.,12.0,0.,12.0
1980-11-14 13:37:15.670 ,0,0,0.,12.0,0.,12.0,0.,12.0,0.,12.0
1980-11-14 13:37:27.670 ,1,1,0.,12.0,0.,12.0,0.,12.0,0.,12.0
1980-11-14 13:37:39.670 ,1,1,0.,12.0,0.,12.0,0.,12.0,0.,12.0
1980-11-14 13:37:51.670 ,1,0,0.,12.0,0.,12.0,0.,12.0,0.,12.0
1980-11-14 13:38:03.670 ,1,0,0.,12.0,0.,12.0,0.,12.0,0.,12.0
1980-11-14 13:38:15.670 ,2,1,0.,12.0,0.,12.0,0.,12.0,0.,12.0
1980-11-14 13:38:27.670 ,2,1,0.,12.0,0.,12.0,0.,12.0,0.,12.0
1980-11-14 13:38:39.670 ,2,0,0.,12.0,0.,12.0,0.,12.0,0.,12.0
1980-11-14 13:38:51.670 ,2,0,0.,12.0,0.,12.0,0.,12.0,0.,12.0
1980-11-14 13:39:03.670 ,3,1,0.,12.0,0.,12.0,0.,12.0,0.,12.0
1980-11-14 13:39:15.670 ,3,1,0.,12.0,0.,12.0,0.,12.0,0.,12.0
1980-11-14 13:39:27.670 ,3,0,0.,12.0,0.,12.0,0.,12.0,0.,12.0
1980-11-14 13:39:39.670 ,3,0,0.,12.0,0.,12.0,0.,12.0,0.,12.0
1980-11-14 13:39:51.670 ,4,1,0.,12.0,0.,12.0,0.,12.0,0.,12.0
1980-11-14 13:40:03.670 ,4,1,0.,12.0,0.,12.0,0.,12.0,0.,12.0
1980-11-14 13:40:15.670 ,4,0,0.,12.0,0.,12.0,0.,12.0,0.,12.0
1980-11-14 13:40:27.670 ,4,0,0.,12.0,0.,12.0,0.,12.0,0.,12.0
1980-11-14 13:40:39.670 ,5,1,0.,12.0,0.,12.0,0.,12.0,0.,12.0
1980-11-14 13:40:51.670 ,5,1,0.,12.0,0.,12.0,0.,12.0,0.,12.0
1980-11-14 13:41:03.670 ,5,0,0.,12.0,0.,12.0,0.,12.0,0.,12.0
1980-11-14 13:41:15.670 ,5,0,0.,12.0,0.,12.0,0.,12.0,0.,12.0
1980-11-14 13:41:27.670 ,6,1,0.,12.0,0.,12.0,0.,12.0,0.,12.0
1980-11-14 13:41:39.670 ,6,1,0.,12.0,0.,12.0,0.,12.0,0.,12.0
1980-11-14 13:41:51.670 ,6,0,0.,12.0,0.,12.0,0.,12.0,0.,12.0
1980-11-14 13:42:03.670 ,6,0,0.,12.0,0.,12.0,0.,12.0,0.,12.0
1980-11-14 13:42:15.670 ,7,1,0.,12.0,0.,12.0,0.,12.0,0.,12.0
1980-11-14 13:42:27.670 ,7,1,0.,12.0,0.,12.0,0.,12.0,0.,12.0
1980-11-14 13:42:39.670 ,7,0,0.,12.0,0.,12.0,0.,12.0,0.,12.0
1980-11-14 13:42:51.670 ,7,0,0.,12.0,0.,12.0,0.,12.0,0.,12.0
1980-11-14 13:43:03.670 ,7,1,0.,12.0,0.,12.0,0.,12.0,0.,12.0
1980-11-14 13:43:15.670 ,7,1,0.,12.0,0.,12.0,0.,12.0,0.,12.0
1980-11-14 13:43:27.670 ,7,0,0.,12.0,0.,12.0,0.,12.0,0.,12.0
1980-11-14 13:43:39.670 ,7,0,0.,12.0,0.,12.0,0.,12.0,0.,12.0
1980-11-14 13:43:51.670 ,6,1,0.,12.0,0.,12.0,0.,12.0,0.,12.0
1980-11-14 13:44:03.670 ,6,1,0.,12.0,0.,12.0,0.,12.0,0.,12.0
1980-11-14 13:44:15.670 ,6,0,0.,12.0,0.,12.0,0.,12.0,0.,12.0
1980-11-14 13:44:27.670 ,6,0,0.,12.0,0.,12.0,0.,12.0,0.,12.0
1980-11-14 13:44:39.670 ,5,1,0.,12.0,0.,12.0,0.,12.0,0.,12.0
1980-11-14 13:44:51.670 ,5,1,0.,12.0,0.,12.0,0.,12.0,0.,12.0
1980-11-14 13:45:03.670 ,5,0,0.,12.0,0.,12.0,0.,12.0,0.,12.0
1980-11-14 13:45:15.670 ,5,0,0.,12.0,0.,12.0,0.,12.0,0.,12.0
1980-11-14 13:45:27.670 ,4,1,0.,12.0,0.,12.0,0.,12.0,0.,12.0
1980-11-14 13:45:39.670 ,4,1,0.,12.0,0.,12.0,0.,12.0,0.,12.0
1980-11-14 13:45:51.670 ,4,0,0.,12.0,0.,12.0,0.,12.0,0.,12.0
1980-11-14 13:46:03.670 ,4,0,0.,12.0,0.,12.0,0.,12.0,0.,12.0
1980-11-14 13:46:15.670 ,3,1,0.,12.0,0.,12.0,0.,12.0,0.,12.0
1980-11-14 13:46:27.670 ,3,1,0.,12.0,0.,12.0,0.,12.0,0.,12.0
1980-11-14 13:46:39.670 ,3,0,0.,12.0,0.,12.0,0.,12.0,0.,12.0
1980-11-14 13:46:51.670 ,3,0,0.,12.0,0.,12.0,0.,12.0,0.,12.0
1980-11-14 13:47:03.670 ,2,1,0.,12.0,0.,12.0,0.,12.0,0.,12.0
1980-11-14 13:47:15.670 ,2,1,0.,12.0,0.,12.0,0.,12.0,0.,12.0
1980-11-14 13:47:27.670 ,2,0,0.,12.0,0.,12.0,0.,12.0,0.,12.0
1980-11-14 13:47:39.670 ,2,0,0.,12.0,0.,12.0,0.,12.0,0.,12.0
1980-11-14 13:47:51.670 ,1,1,0.,12.0,0.,12.0,0.,12.0,0.,12.0
1980-11-14 13:48:03.670 ,1,1,0.,12.0,0.,12.0,0.,12.0,0.,12.0
1980-11-14 13:48:15.670 ,1,0,0.,12.0,0.,12.0,0.,12.0,0.,12.0
1980-11-14 13:48:27.670 ,1,0,0.,12.0,0.,12.0,0.,12.0,0.,12.0
1980-11-14 13:48:39.670 ,0,1,0.,12.0,0.,12.0,0.,12.0,0.,12.0
1980-11-14 13:48:51.670 ,0,1,0.,12.0,0.,12.0,0.,12.0,0.,12.0
1980-11-14 13:49:03.670 ,0,0,0.,12.0,0.,12.0,0.,12.0,0.,12.0
1980-11-14 13:49:15.670 ,0,0,0.,12.0,0.,12.0,0.,12.0,0.,12.0
1980-11-14 13:49:27.670 ,0,1,0.,12.0,0.,12.0,0.,12.0,0.,12.0
1980-11-14 13:49:39.670 ,0,1,0.,12.0,0.,12.0,0.,12.0,0.,12.0
1980-11-14 13:49:51.670 ,0,0,0.,12.0,0.,12.0,0.,12.0,0.,12.0
1980-11-14 13:50:03.670 ,0,0,0.,12.0,0.,12.0,0.,12.0,0.,12.0
1980-11-14 13:50:15.670 ,1,1,0.,12.0,0.,12.0,0.,12.0,0.,12.0
1980-11-14 13:50:27.670 ,1,1,0.,12.0,0.,12.0,0.,12.0,0.,12.0
1980-11-14 13:50:39.670 ,1,0,0.,12.0,0.,12.0,0.,12.0,0.,12.0
1980-11-14 13:50:51.670 ,1,0,0.,12.0,0.,12.0,0.,12.0,0.,12.0
1980-11-14 13:51:03.670 ,2,1,0.,12.0,0.,12.0,0.,12.0,0.,12.0
1980-11-14 13:51:15.670 ,2,1,0.,12.0,0.,12.0,0.,12.0,0.,12.0
1980-11-14 13:51:27.670 ,2,0,0.,12.0,0.,12.0,0.,12.0,0.,12.0
1980-11-14 13:51:39.670 ,2,0,0.,12.0,0.,12.0,0.,12.0,0.,12.0
1980-11-14 13:51:51.670 ,3,1,0.,12.0,0.,12.0,0.,12.0,0.,12.0
1980-11-14 13:52:03.670 ,3,1,0.,12.0,0.,12.0,0.,12.0,0.,12.0
1980-11-14 13:52:15.670 ,3,0,0.,12.0,0.,12.0,0.,12.0,0.,12.0
1980-11-14 13:52:27.670 ,3,0,0.,12.0,0.,12.0,0.,12.0,0.,12.0
1980-11-14 13:52:39.670 ,4,1,0.,12.0,0.,12.0,0.,12.0,0.,12.0
1980-11-14 13:52:51.670 ,4,1,0.,12.0,0.,12.0,0.,12.0,0.,12.0
1980-11-14 13:53:03.670 ,4,0,0.,12.0,0.,12.0,0.,12.0,0.,12.0
1980-11-14 13:53:15.670 ,4,0,0.,12.0,0.,12.0,0.,12.0,0.,12.0
1980-11-14 13:53:27.670 ,5,1,0.,12.0,0.,12.0,0.,12.0,0.,12.0
1980-11-14 13:53:39.670 ,5,1,0.,12.0,0.,12.0,0.,12.0,0.,12.0
1980-11-14 13:53:51.670 ,5,0,0.,12.0,0.,12.0,0.,12.0,0.,12.0
1980-11-14 13:54:03.670 ,5,0,0.,12.0,0.,12.0,0.,12.0,0.,12.0
1980-11-14 13:54:15.670 ,6,1,0.,12.0,0.,12.0,0.,12.0,0.,12.0
1980-11-14 13:54:27.670 ,6,1,0.,12.0,0.,12.0,0.,12.0,0.,12.0
1980-11-14 13:54:39.670 ,6,0,0.,12.0,0.,12.0,0.,12.0,0.,12.0
1980-11-14 13:54:51.670 ,6,0,0.,12.0,0.,12.0,0.,12.0,0.,12.0
1980-11-14 13:55:03.670 ,7,1,0.,12.0,0.,12.0,0.,12.0,0.,12.0
1980-11-14 13:55:15.670 ,7,1,0.,12.0,0.,12.0,0.,12.0,0.,12.0
1980-11-14 13:55:27.670 ,7,0,0.,12.0,0.,12.0,0.,12.0,0.,12.0
1980-11-14 13:55:39.670 ,7,0,0.,12.0,0.,12.0,0.,12.0,0.,12.0
1980-11-14 13:55:51.670 ,7,1,0.,12.0,0.,12.0,0.,12.0,0.,12.0
1980-11-14 13:56:03.670 ,7,1,0.,12.0,0.,12.0,0.,12.0,0.,12.0
1980-11-14 13:56:15.670 ,7,0,0.,12.0,0.,12.0,0.,12.0,0.,12.0
1980-11-14 13:56:27.670 ,7,0,0.,12.0,0.,12.0,0.,12.0,0.,12.0
1980-11-14 13:56:39.670 ,6,1,0.,12.0,0.,12.0,0.,12.0,0.,12.0
1980-11-14 13:56:51.670 ,6,1,0.,12.0,0.,12.0,0.,12.0,0.,12.0
1980-11-14 13:57:03.670 ,6,0,0.,12.0,0.,12.0,0.,12.0,0.,12.0
1980-11-14 13:57:15.670 ,6,0,0.,12.0,0.,12.0,0.,12.0,0.,12.0
1980-11-14 13:57:27.670 ,5,1,0.,12.0,0.,12.0,0.,12.0,0.,12.0
1980-11-14 13:57:39.670 ,5,1,0.,12.0,0.,12.0,0.,12.0,0.,12.0
1980-11-14 13:57:51.670 ,5,0,0.,12.0,0.,12.0,0.,12.0,0.,12.0
1980-11-14 13:58:03.670 ,5,0,0.,12.0,0.,12.0,0.,12.0,0.,12.0
1980-11-14 13:58:15.670 ,4,1,0.,12.0,0.,12.0,0.,12.0,0.,12.0
1980-11-14 13:58:27.670 ,4,1,0.,12.0,0.,12.0,0.,12.0,0.,12.0
1980-11-14 13:58:39.670 ,4,0,0.,12.0,0.,12.0,0.,12.0,0.,12.0
1980-11-14 13:58:51.670 ,4,0,0.,12.0,0.,12.0,0.,12.0,0.,12.0
1980-11-14 13:59:03.670 ,3,1,0.,12.0,0.,12.0,0.,12.0,0.,12.0
1980-11-14 13:59:15.670 ,3,1,0.,12.0,0.,12.0,0.,12.0,0.,12.0
1980-11-14 13:59:27.670 ,3,0,0.,12.0,0.,12.0,0.,12.0,0.,12.0
1980-11-14 13:59:39.670 ,3,0,0.,12.0,0.,12.0,0.,12.0,0.,12.0
1980-11-14 13:59:51.670 ,2,1,0.,12.0,0.,12.0,0.,12.0,0.,12.0
1980-11-14 14:00:03.670 ,2,1,0.,12.0,0.,12.0,0.,12.0,0.,12.0
1980-11-14 14:00:15.670 ,2,0,0.,12.0,0.,12.0,0.,12.0,0.,12.0
1980-11-14 14:00:27.670 ,2,0,0.,12.0,0.,12.0,0.,12.0,0.,12.0
1980-11-14 14:00:39.670 ,1,1,0.,12.0,0.,12.0,0.,12.0,0.,12.0
1980-11-14 14:00:51.670 ,1,1,0.,12.0,0.,12.0,0.,12.0,0.,12.0
1980-11-14 14:01:03.670 ,1,0,0.,12.0,0.,12.0,0.,12.0,0.,12.0
1980-11-14 14:01:15.670 ,1,0,0.,12.0,0.,12.0,0.,12.0,0.,12.0
1980-11-14 14:01:27.670 ,0,1,0.,12.0,0.,12.0,0.,12.0,0.,12.0
1980-11-14 14:01:39.670 ,0,1,0.,12.0,0.,12.0,0.,12.0,0.,12.0
1980-11-14 14:01:51.670 ,0,0,0.,12.0,0.,12.0,0.,12.0,0.,12.0
1980-11-14 14:02:03.670 ,0,0,0.,12.0,0.,12.0,0.,12.0,0.,12.0
1980-11-14 14:02:15.670 ,0,1,0.,12.0,0.,12.0,0.,12.0,0.,12.0
1980-11-14 14:02:27.670 ,0,1,0.,12.0,0.,12.0,0.,12.0,0.,12.0
1980-11-14 14:02:39.670 ,0,0,0.,12.0,0.,12.0,0.,12.0,0.,12.0
1980-11-14 14:02:51.670 ,0,0,0.,12.0,0.,12.0,0.,12.0,0.,12.0
1980-11-14 14:03:03.670 ,1,1,0.,12.0,0.,12.0,0.,12.0,0.,12.0
1980-11-14 14:03:15.670 ,1,1,0.,12.0,0.,12.0,0.,12.0,0.,12.0
1980-11-14 14:03:27.670 ,1,0,0.,12.0,0.,12.0,0.,12.0,0.,12.0
1980-11-14 14:03:39.670 ,1,0,0.,12.0,0.,12.0,0.,12.0,0.,12.0
1980-11-14 14:03:51.670 ,2,1,0.,12.0,0.,12.0,0.,12.0,0.,12.0
1980-11-14 14:04:03.670 ,2,1,0.,12.0,0.,12.0,0.,12.0,0.,12.0
1980-11-14 14:04:15.670 ,2,0,0.,12.0,0.,12.0,0.,12.0,0.,12.0
1980-11-14 14:04:27.670 ,2,0,0.,12.0,0.,12.0,0.,12.0,0.,12.0
1980-11-14 14:04:39.670 ,3,1,0.,12.0,0.,12.0,0.,12.0,0.,12.0
1980-11-14 14:04:51.670 ,3,1,0.,12.0,0.,12.0,0.,12.0,0.,12.0
1980-11-14 14:05:03.670 ,3,0,0.,12.0,0.,12.0,0.,12.0,0.,12.0
1980-11-14 14:05:15.670 ,3,0,0.,12.0,0.,12.0,0.,12.0,0.,12.0
1980-11-14 14:05:27.670 ,4,1,0.,12.0,0.,12.0,0.,12.0,0.,12.0
1980-11-14 14:05:39.670 ,4,1,0.,12.0,0.,12.0,0.,12.0,0.,12.0
1980-11-14 14:05:51.670 ,4,0,0.,12.0,0.,12.0,0.,12.0,0.,12.0
1980-11-14 14:06:03.670 ,4,0,0.,12.0,0.,12.0,0.,12.0,0.,12.0
1980-11-14 14:06:15.670 ,5,1,0.,12.0,0.,12.0,0.,12.0,0.,12.0
1980-11-14 14:06:27.670 ,5,1,0.,12.0,0.,12.0,0.,12.0,0.,12.0
1980-11-14 14:06:39.670 ,5,0,0.,12.0,0.,12.0,0.,12.0,0.,12.0
1980-11-14 14:06:51.670 ,5,0,0.,12.0,0.,12.0,0.,12.0,0.,12.0
1980-11-14 14:07:03.670 ,6,1,0.,12.0,0.,12.0,0.,12.0,0.,12.0
1980-11-14 14:07:15.670 ,6,1,0.,12.0,0.,12.0,0.,12.0,0.,12.0
1980-11-14 14:07:27.670 ,6,0,0.,12.0,0.,12.0,0.,12.0,0.,12.0
1980-11-14 14:07:39.670 ,6,0,0.,12.0,0.,12.0,0.,12.0,0.,12.0
1980-11-14 14:07:51.670 ,7,1,0.,12.0,0.,12.0,0.,12.0,0.,12.0
1980-11-14 14:08:03.670 ,7,1,0.,12.0,0.,12.0,0.,12.0,0.,12.0
1980-11-14 14:08:15.670 ,7,0,0.,12.0,0.,12.0,0.,12.0,0.,12.0
1980-11-14 14:08:27.670 ,7,0,0.,12.0,0.,12.0,0.,12.0,0.,12.0
1980-11-14 14:08:39.670 ,7,1,0.,12.0,0.,12.0,0.,12.0,0.,12.0
1980-11-14 14:08:51.670 ,7,1,0.,12.0,0.,12.0,0.,12.0,0.,12.0
1980-11-14 14:09:03.670 ,7,0,0.,12.0,0.,12.0,0.,12.0,0.,12.0
1980-11-14 14:09:15.670 ,7,0,0.,12.0,0.,12.0,0.,12.0,0.,12.0
1980-11-14 14:09:27.670 ,6,1,0.,12.0,0.,12.0,0.,12.0,0.,12.0
1980-11-14 14:09:39.670 ,6,1,0.,12.0,0.,12.0,0.,12.0,0.,12.0
1980-11-14 14:09:51.670 ,6,0,0.,12.0,0.,12.0,0.,12.0,0.,12.0
1980-11-14 14:10:03.670 ,6,0,0.,12.0,0.,12.0,0.,12.0,0.,12.0
1980-11-14 14:10:15.670 ,5,1,0.,12.0,0.,12.0,0.,12.0,0.,12.0
1980-11-14 14:10:27.670 ,5,1,0.,12.0,0.,12.0,0.,12.0,0.,12.0
1980-11-14 14:10:39.670 ,5,0,0.,12.0,0.,12.0,0.,12.0,0.,12.0
1980-11-14 14:10:51.670 ,5,0,0.,12.0,0.,12.0,0.,12.0,0.,12.0
1980-11-14 14:11:03.670 ,4,1,0.,12.0,0.,12.0,0.,12.0,0.,12.0
1980-11-14 14:11:15.670 ,4,1,0.,12.0,0.,12.0,0.,12.0,0.,12.0
1980-11-14 14:11:27.670 ,4,0,0.,12.0,0.,12.0,0.,12.0,0.,12.0
1980-11-14 14:11:39.670 ,4,0,0.,12.0,0.,12.0,0.,12.0,0.,12.0
1980-11-14 14:11:51.670 ,3,1,0.,12.0,0.,12.0,0.,12.0,0.,12.0
1980-11-14 14:12:03.670 ,3,1,0.,12.0,0.,12.0,0.,12.0,0.,12.0
1980-11-14 14:12:15.670 ,3,0,0.,12.0,0.,12.0,0.,12.0,0.,12.0
1980-11-14 14:12:27.670 ,3,0,0.,12.0,0.,12.0,0.,12.0,0.,12.0
1980-11-14 14:12:39.670 ,2,1,0.,12.0,0.,12.0,0.,12.0,0.,12.0
1980-11-14 14:12:51.670 ,2,1,0.,12.0,0.,12.0,0.,12.0,0.,12.0
1980-11-14 14:13:03.670 ,2,0,0.,12.0,0.,12.0,0.,12.0,0.,12.0
1980-11-14 14:13:15.670 ,2,0,0.,12.0,0.,12.0,0.,12.0,0.,12.0
1980-11-14 14:13:27.670 ,1,1,0.,12.0,0.,12.0,0.,12.0,0.,12.0
1980-11-14 14:13:39.670 ,1,1,0.,12.0,0.,12.0,0.,12.0,0.,12.0
1980-11-14 14:13:51.670 ,1,0,0.,12.0,0.,12.0,0.,12.0,0.,12.0
1980-11-14 14:14:03.670 ,1,0,0.,12.0,0.,12.0,0.,12.0,0.,12.0
1980-11-14 14:14:15.670 ,0,1,0.,12.0,0.,12.0,0.,12.0,0.,12.0
1980-11-14 14:14:27.670 ,0,1,0.,12.0,0.,12.0,0.,12.0,0.,12.0
1980-11-14 14:14:39.670 ,0,0,0.,12.0,0.,12.0,0.,12.0,0.,12.0
1980-11-14 14:14:51.670 ,0,0,0.,12.0,0.,12.0,0.,12.0,0.,12.0
1980-11-14 14:15:03.670 ,0,1,0.,12.0,0.,12.0,0.,12.0,0.,12.0
1980-11-14 14:15:15.670 ,0,1,0.,12.0,0.,12.0,0.,12.0,0.,12.0
1980-11-14 14:15:27.670 ,0,0,0.,12.0,0.,12.0,0.,12.0,0.,12.0
1980-11-14 14:15:39.670 ,0,0,0.,12.0,0.,12.0,0.,12.0,0.,12.0
1980-11-14 14:15:51.670 ,1,1,0.,12.0,0.,12.0,0.,12.0,0.,12.0
1980-11-14 14:16:03.670 ,1,1,0.,12.0,0.,12.0,0.,12.0,0.,12.0
1980-11-14 14:16:15.670 ,1,0,0.,12.0,0.,12.0,0.,12.0,0.,12.0
1980-11-14 14:16:27.670 ,1,0,0.,12.0,0.,12.0,0.,12.0,0.,12.0
1980-11-14 14:16:39.670 ,2,1,0.,12.0,0.,12.0,0.,12.0,0.,12.0
1980-11-14 14:16:51.670 ,2,1,0.,12.0,0.,12.0,0.,12.0,0.,12.0
1980-11-14 14:17:03.670 ,2,0,0.,12.0,0.,12.0,0.,12.0,0.,12.0
1980-11-14 14:17:15.670 ,2,0,0.,12.0,0.,12.0,0.,12.0,0.,12.0
1980-11-14 14:17:27.670 ,3,1,0.,12.0,0.,12.0,0.,12.0,0.,12.0
1980-11-14 14:17:39.670 ,3,1,0.,12.0,0.,12.0,0.,12.0,0.,12.0
1980-11-14 14:17:51.670 ,3,0,0.,12.0,0.,12.0,0.,12.0,0.,12.0
1980-11-14 14:18:03.670 ,3,0,0.,12.0,0.,12.0,0.,12.0,0.,12.0
1980-11-14 14:18:15.670 ,4,1,0.,12.0,0.,12.0,0.,12.0,0.,12.0
1980-11-14 14:18:27.670 ,4,1,0.,12.0,0.,12.0,0.,12.0,0.,12.0
1980-11-14 14:18:39.670 ,4,0,0.,12.0,0.,12.0,0.,12.0,0.,12.0
1980-11-14 14:18:51.670 ,4,0,0.,12.0,0.,12.0,0.,12.0,0.,12.0
1980-11-14 14:19:03.670 ,5,1,0.,12.0,0.,12.0,0.,12.0,0.,12.0
1980-11-14 14:19:15.670 ,5,1,0.,12.0,0.,12.0,0.,12.0,0.,12.0
1980-11-14 14:19:27.670 ,5,0,0.,12.0,0.,12.0,0.,12.0,0.,12.0
1980-11-14 14:19:39.670 ,5,0,0.,12.0,0.,12.0,0.,12.0,0.,12.0
1980-11-14 14:19:51.670 ,6,1,0.,12.0,0.,12.0,0.,12.0,0.,12.0
1980-11-14 14:20:03.670 ,6,1,0.,12.0,0.,12.0,0.,12.0,0.,12.0
1980-11-14 14:20:15.670 ,6,0,0.,12.0,0.,12.0,0.,12.0,0.,12.0
1980-11-14 14:20:27.670 ,6,0,0.,12.0,0.,12.0,0.,12.0,0.,12.0
1980-11-14 14:20:39.670 ,7,1,0.,12.0,0.,12.0,0.,12.0,0.,12.0
1980-11-14 14:20:51.670 ,7,1,0.,12.0,0.,12.0,0.,12.0,0.,12.0
1980-11-14 14:21:03.670 ,7,0,0.,12.0,0.,12.0,0.,12.0,0.,12.0
1980-11-14 14:21:15.670 ,7,0,0.,12.0,0.,12.0,0.,12.0,0.,12.0
1980-11-14 14:21:27.670 ,7,1,0.,12.0,0.,12.0,0.,12.0,0.,12.0
1980-11-14 14:21:39.670 ,7,1,0.,12.0,0.,12.0,0.,12.0,0.,12.0
1980-11-14 14:21:51.670 ,7,0,0.,12.0,0.,12.0,0.,12.0,0.,12.0
1980-11-14 14:22:03.670 ,7,0,0.,12.0,0.,12.0,0.,12.0,0.,12.0
1980-11-14 14:22:15.670 ,6,1,0.,12.0,0.,12.0,0.,12.0,0.,12.0
1980-11-14 14:22:27.670 ,6,1,0.,12.0,0.,12.0,0.,12.0,0.,12.0
1980-11-14 14:22:39.670 ,6,0,0.,12.0,0.,12.0,0.,12.0,0.,12.0
1980-11-14 14:22:51.670 ,6,0,0.,12.0,0.,12.0,0.,12.0,0.,12.0
1980-11-14 14:23:03.670 ,5,1,0.,12.0,0.,12.0,0.,12.0,0.,12.0
1980-11-14 14:23:15.670 ,5,1,0.,12.0,0.,12.0,0.,12.0,0.,12.0
1980-11-14 14:23:27.670 ,5,0,0.,12.0,0.,12.0,0.,12.0,0.,12.0
1980-11-14 14:23:39.670 ,5,0,0.,12.0,0.,12.0,0.,12.0,0.,12.0
1980-11-14 14:23:51.670 ,4,1,0.,12.0,0.,12.0,0.,12.0,0.,12.0
1980-11-14 14:24:03.670 ,4,1,0.,12.0,0.,12.0,0.,12.0,0.,12.0
1980-11-14 14:24:15.670 ,4,0,0.,12.0,0.,12.0,0.,12.0,0.,12.0
1980-11-14 14:24:27.670 ,4,0,0.,12.0,0.,12.0,0.,12.0,0.,12.0
1980-11-14 14:24:39.670 ,3,1,0.,12.0,0.,12.0,0.,12.0,0.,12.0
1980-11-14 14:24:51.670 ,3,1,0.,12.0,0.,12.0,0.,12.0,0.,12.0
1980-11-14 14:25:03.670 ,3,0,0.,12.0,0.,12.0,0.,12.0,0.,12.0
1980-11-14 14:25:15.670 ,3,0,0.,12.0,0.,12.0,0.,12.0,0.,12.0
1980-11-14 14:25:27.670 ,2,1,0.,12.0,0.,12.0,0.,12.0,0.,12.0
1980-11-14 14:25:39.670 ,2,1,0.,12.0,0.,12.0,0.,12.0,0.,12.0
1980-11-14 14:25:51.670 ,2,0,0.,12.0,0.,12.0,0.,12.0,0.,12.0
1980-11-14 14:26:03.670 ,2,0,0.,12.0,0.,12.0,0.,12.0,0.,12.0
1980-11-14 14:26:15.670 ,1,1,0.,12.0,0.,12.0,0.,12.0,0.,12.0
1980-11-14 14:26:27.670 ,1,1,0.,12.0,0.,12.0,0.,12.0,0.,12.0
1980-11-14 14:26:39.670 ,1,0,0.,12.0,0.,12.0,0.,12.0,0.,12.0
1980-11-14 14:26:51.670 ,1,0,0.,12.0,0.,12.0,0.,12.0,0.,12.0
1980-11-14 14:27:03.670 ,0,1,0.,12.0,0.,12.0,0.,12.0,0.,12.0
1980-11-14 14:27:15.670 ,0,1,0.,12.0,0.,12.0,0.,12.0,0.,12.0
1980-11-14 14:27:27.670 ,0,0,0.,12.0,0.,12.0,0.,12.0,0.,12.0
1980-11-14 14:27:39.670 ,0,0,0.,12.0,0.,12.0,0.,12.0,0.,12.0
1980-11-14 14:27:51.670 ,0,1,0.,12.0,0.,12.0,0.,12.0,0.,12.0
1980-11-14 14:28:03.670 ,0,1,0.,12.0,0.,12.0,0.,12.0,0.,12.0
1980-11-14 14:28:15.670 ,0,0,0.,12.0,0.,12.0,0.,12.0,0.,12.0
1980-11-14 14:28:27.670 ,0,0,0.,12.0,0.,12.0,0.,12.0,0.,12.0
1980-11-14 14:28:39.670 ,1,1,0.,12.0,0.,12.0,0.,12.0,0.,12.0
1980-11-14 14:28:51.670 ,1,1,0.,12.0,0.,12.0,0.,12.0,0.,12.0
1980-11-14 14:29:03.670 ,1,0,0.,12.0,0.,12.0,0.,12.0,0.,12.0
1980-11-14 14:29:15.670 ,1,0,0.,12.0,0.,12.0,0.,12.0,0.,12.0